RH
15 15 15 16 16 16 17 17 17 17 17 18 18 18 18 18 18 18 18 19 20 21 21 20 20 20 20 19 19 18 17 16 15 14 14 15 15 16 16 17 17 18 17 17 16 16 16 15 15 15 15 16 16 17 16 16 16 18 19 21 23 25 28 32 37 41 44 45 46 46 46 46 47 48 49 51 53 54 54 52 50 47 45 43 43
15 15 15 16 17 17 18 18 18 18 19 19 19 20 20 20 20 21 21 22 22 23 23 22 22 22 21 20 19 18 17 16 16 16 16 16 17 17 18 18 18 19 18 17 17 16 16 15 15 15 14 14 14 14 14 13 13 13 13 14 14 14 15 17 20 25 30 35 40 44 48 50 50 49 49 50 52 54 55 56 55 54 53 51 50
15 15 15 16 17 17 18 18 18 18 19 20 20 20 21 21 21 22 23 23 24 24 25 24 24 23 22 22 21 20 19 19 19 20 20 20 20 20 21 21 21 21 20 18 17 16 15 15 15 15 14 14 13 13 12 12 11 11 11 11 11 10 10 10 11 12 14 17 21 27 35 42 48 51 52 53 54 55 56 57 58 59 60 61 61
15 15 16 16 17 18 17 17 18 18 19 19 20 20 21 22 22 23 24 24 25 25 26 26 26 25 24 24 23 23 22 22 23 24 24 24 25 26 25 25 25 24 22 20 18 17 16 16 16 15 15 14 13 13 13 12 12 11 11 11 10 10 10 9 9 10 9 10 11 13 17 22 31 40 47 52 54 55 58 59 60 61 64 65 66
16 15 16 16 17 17 17 18 18 18 18 18 19 20 21 22 22 23 25 25 26 27 27 27 27 26 25 25 25 25 25 25 27 27 28 29 29 30 30 29 27 25 23 22 20 19 18 17 17 16 16 15 14 14 13 13 13 13 12 12 12 11 11 10 10 10 9 9 10 10 10 11 15 21 30 40 49 53 55 58 61 63 65 66 68
17 16 16 17 17 17 17 17 18 17 17 18 19 21 22 23 24 24 25 26 27 28 29 29 29 29 28 28 27 27 27 28 29 30 31 33 33 33 33 31 29 27 25 24 22 20 19 18 18 18 17 17 16 15 15 15 14 14 14 14 13 13 12 12 12 11 11 10 10 10 10 11 11 11 15 22 33 43 49 52 56 59 62 64 66
16 16 16 16 16 17 16 16 17 17 17 19 21 22 23 24 24 26 26 27 28 29 31 32 32 33 32 31 31 31 31 31 32 32 33 35 36 36 37 35 32 31 30 29 27 24 21 19 19 19 19 19 18 18 17 17 17 17 16 16 15 15 15 14 14 14 13 13 12 12 12 12 12 12 12 14 17 25 35 44 50 53 55 58 61
16 16 15 16 16 16 16 16 17 17 19 20 21 22 23 25 26 27 28 28 29 30 32 34 34 35 36 36 36 36 36 36 37 36 37 38 38 39 40 38 35 34 34 34 33 30 26 23 22 22 22 22 21 21 21 21 20 20 19 19 18 18 17 17 16 16 16 16 15 14 14 14 13 13 14 14 14 14 19 29 39 46 50 53 56
16 16 15 15 16 16 16 17 18 19 20 21 21 22 23 25 26 27 28 29 30 31 33 34 36 37 39 40 41 41 42 42 42 41 41 42 41 42 43 41 39 39 39 39 39 38 35 30 27 26 26 27 26 25 25 24 24 23 22 22 22 21 21 20 19 19 19 18 18 17 16 16 16 16 15 15 15 14 12 16 24 32 40 47 52
16 16 15 15 16 16 17 18 19 19 20 21 22 23 23 24 26 27 28 29 31 32 34 36 38 40 42 43 44 45 46 47 47 47 48 48 47 48 48 46 45 45 45 45 45 45 42 38 33 31 31 31 31 30 29 28 27 27 26 26 25 25 24 23 22 22 22 22 22 21 20 19 19 18 18 18 18 18 16 14 16 20 26 35 43
17 17 17 16 17 17 18 18 18 18 20 22 22 23 24 24 26 27 28 30 32 34 36 38 41 42 44 46 47 49 51 52 52 52 54 55 54 55 55 54 53 53 53 52 52 51 49 45 40 37 36 36 36 35 34 32 31 30 30 29 29 29 29 28 27 25 25 25 25 25 24 24 23 22 22 22 21 20 19 16 16 16 16 20 28
16 17 17 17 17 17 18 18 18 19 20 22 23 25 26 27 28 29 31 34 36 39 41 43 45 47 47 49 51 52 55 57 58 59 61 63 62 62 62 61 61 61 60 59 59 57 55 51 46 43 41 40 40 40 39 38 36 34 33 33 33 33 33 33 32 31 30 29 29 29 29 28 27 26 25 25 24 23 22 19 18 18 17 15 18
16 17 17 17 18 17 18 18 18 20 22 24 27 30 32 32 34 35 35 39 43 45 46 48 50 51 52 54 55 58 62 63 65 66 68 70 69 68 67 66 66 65 64 64 64 63 60 57 54 50 47 45 44 44 45 43 41 39 37 37 38 38 38 38 38 37 36 34 33 32 32 31 30 30 29 27 26 26 25 23 21 22 20 17 17
15 16 17 17 18 18 19 20 21 22 25 28 32 35 38 38 40 40 41 45 49 50 52 54 55 56 58 59 60 63 66 67 70 72 74 77 76 75 74 72 71 72 72 70 68 66 63 61 59 55 53 52 51 49 50 50 48 45 43 42 42 42 42 42 42 42 41 39 37 36 34 33 33 32 31 30 29 28 28 27 25 25 22 19 19
16 16 17 18 19 20 21 22 23 26 29 33 35 37 40 42 44 45 46 49 54 56 58 59 59 59 60 59 59 61 63 66 69 72 75 77 76 74 74 73 73 76 78 76 73 70 68 66 63 61 59 58 59 57 56 56 55 52 50 48 46 46 45 44 44 44 44 43 41 39 37 35 34 33 32 32 31 30 30 30 29 29 28 24 21
17 18 19 20 21 22 23 24 26 30 35 37 38 39 42 45 48 50 52 55 59 61 62 60 59 59 58 57 57 58 61 63 65 67 69 72 71 69 70 71 71 74 77 77 76 74 74 71 69 67 64 63 65 65 63 62 61 60 57 54 51 49 47 46 45 45 44 44 44 42 40 38 37 35 34 33 33 32 32 32 32 34 34 31 28
20 22 22 22 23 24 25 27 31 36 39 40 40 41 44 47 51 54 56 58 60 60 60 59 59 58 57 57 56 57 58 59 61 65 68 70 67 66 70 74 72 72 73 74 74 72 72 72 70 70 68 67 69 71 71 68 65 64 61 58 56 53 51 49 47 47 46 46 46 45 44 42 40 38 37 35 34 34 33 33 32 33 35 34 35
24 25 25 26 27 28 29 33 38 41 41 40 41 44 49 53 56 57 56 56 57 59 60 60 59 59 58 56 55 57 59 59 62 67 68 69 67 66 70 74 73 73 73 73 71 68 67 66 66 67 68 68 69 72 75 73 68 64 62 59 58 56 55 54 53 52 51 50 50 49 47 45 43 41 39 38 37 36 35 34 33 33 34 34 37
27 28 29 31 31 32 36 40 42 42 41 42 45 48 53 56 58 58 58 57 58 59 59 59 58 56 55 52 52 57 62 64 67 70 69 69 70 68 70 73 74 75 74 73 70 67 64 62 61 62 63 66 69 71 76 77 70 64 61 59 58 58 58 58 57 56 55 54 54 52 51 48 46 44 42 41 40 39 37 37 36 35 35 35 36
30 31 33 35 36 40 43 43 42 41 44 47 49 52 53 55 57 58 58 57 57 57 57 57 56 56 56 54 54 57 62 67 69 71 72 72 72 71 73 76 77 76 75 73 71 68 65 61 59 59 59 63 68 71 76 78 72 64 61 60 59 59 59 59 58 57 56 56 55 54 53 51 50 48 46 45 43 42 41 40 39 38 38 37 37
33 35 38 40 42 44 44 43 43 45 49 52 54 55 55 55 56 55 54 55 56 56 56 56 56 56 57 57 58 60 66 73 75 75 75 74 74 75 77 78 78 78 77 75 73 70 66 63 61 60 59 62 67 70 74 79 73 65 62 61 60 60 60 59 58 56 56 56 55 55 54 53 52 51 49 48 47 46 45 44 43 42 41 40 39
38 41 45 46 45 44 43 45 49 52 55 56 57 56 55 54 53 53 55 57 58 59 58 57 57 57 57 57 57 58 64 72 77 78 77 74 75 77 79 80 79 79 79 79 80 74 69 66 64 64 63 64 68 68 71 78 74 66 63 63 62 62 61 60 59 57 56 56 56 56 54 54 54 53 52 51 50 49 48 47 46 46 45 43 42
44 48 48 46 45 45 47 51 55 56 57 57 56 54 50 48 46 46 46 45 45 45 44 45 47 48 50 53 55 55 57 61 65 70 72 73 75 78 80 80 80 80 82 86 87 81 74 70 68 66 66 67 71 70 70 76 74 66 65 65 63 63 62 61 60 59 58 58 57 56 56 55 55 55 54 54 52 51 50 50 49 49 49 48 46
52 51 47 46 47 50 53 56 57 57 57 55 50 44 40 37 34 32 29 27 25 24 24 26 28 30 34 39 45 51 55 56 57 60 65 70 75 79 80 81 81 83 86 90 90 85 80 78 74 70 69 72 77 75 73 76 74 68 66 66 65 64 64 63 62 61 60 60 59 58 57 57 58 57 56 55 55 54 53 53 53 53 54 53 52
54 49 47 49 52 56 58 59 58 56 53 47 40 36 32 29 26 23 20 18 17 17 17 19 21 25 28 31 38 50 58 58 56 59 67 73 78 80 81 82 84 86 89 91 91 87 85 85 81 76 76 80 82 79 77 78 74 69 68 68 67 66 65 65 64 63 62 61 61 60 60 60 60 59 59 59 58 57 56 56 56 57 58 59 59
51 49 52 55 58 60 60 59 57 52 45 38 33 30 27 24 21 19 19 18 17 17 17 18 21 25 29 31 36 48 57 57 56 64 73 77 79 80 81 83 86 89 92 93 91 89 89 90 87 82 82 84 83 80 80 79 75 70 69 69 69 68 67 66 65 65 64 63 63 62 61 61 61 62 62 62 61 61 60 60 60 62 63 64 65
50 53 57 60 61 61 60 57 52 43 37 32 30 27 24 21 21 21 23 23 22 22 21 21 23 26 31 35 40 49 55 56 60 70 77 78 79 80 81 84 90 94 95 93 92 90 90 90 87 84 85 84 83 82 81 79 75 72 72 71 71 70 69 68 67 67 66 65 64 64 63 63 64 65 66 66 66 65 65 65 66 67 67 68 67
55 58 60 61 61 60 57 51 43 36 33 31 27 25 23 22 24 27 28 27 27 27 25 26 28 30 34 38 43 49 53 57 66 75 78 79 80 80 84 90 95 96 96 93 92 91 91 89 86 85 85 85 84 83 81 79 77 75 74 74 73 72 71 70 69 68 68 67 66 65 65 66 67 70 71 71 70 70 69 69 69 70 70 69 68
59 61 63 62 59 56 50 43 38 36 33 30 27 26 24 23 26 30 30 30 30 29 27 28 30 35 39 42 44 47 52 60 70 76 77 79 80 81 88 95 97 96 95 93 92 91 90 88 86 86 86 85 84 83 81 80 79 77 77 75 75 74 72 72 71 70 69 69 68 68 70 71 73 74 75 75 74 73 72 71 71 71 71 69 68
62 63 62 60 55 50 44 40 38 36 32 30 28 27 24 23 27 31 30 29 29 29 30 31 32 36 40 43 44 46 51 59 69 74 78 80 81 83 89 94 97 96 94 93 91 90 89 87 87 87 86 86 85 83 82 81 81 79 78 77 76 75 74 73 72 71 71 70 72 74 76 78 78 78 78 78 77 77 76 75 73 72 70 68 66
63 62 59 55 51 47 43 41 38 35 32 30 28 25 22 22 28 31 31 30 30 31 33 34 35 37 39 42 45 49 55 63 69 73 75 77 80 83 87 91 95 94 93 92 90 89 88 88 88 88 87 87 86 84 84 83 82 81 80 79 79 78 77 76 76 76 77 77 80 82 82 82 81 81 82 81 81 81 79 77 75 72 71 71 71
61 58 54 51 49 45 42 40 37 34 32 29 26 22 20 23 29 33 32 31 31 33 35 35 35 36 38 42 47 53 60 68 72 73 74 76 80 86 89 93 94 94 92 91 90 90 90 90 89 89 88 88 87 86 85 84 83 82 80 80 82 83 83 82 83 84 84 85 86 87 88 87 85 85 86 84 83 82 80 77 74 71 69 70 73
58 54 52 50 47 44 41 39 36 34 30 26 23 21 20 23 29 32 31 31 33 35 36 35 35 36 37 40 46 52 60 66 70 73 74 77 81 85 89 92 92 92 91 91 91 91 91 91 91 90 89 89 88 87 86 85 84 82 81 82 82 82 84 85 86 86 86 87 88 88 89 88 87 87 86 85 84 82 80 76 73 70 68 67 69
55 53 51 48 45 42 41 38 35 32 28 23 21 21 21 23 25 28 29 31 33 35 35 35 35 36 37 40 43 48 54 59 64 67 70 72 76 79 83 86 88 89 90 91 91 91 90 91 91 90 89 89 88 87 86 85 84 82 85 90 88 84 85 87 88 88 89 89 89 88 88 87 87 87 85 84 82 80 78 75 73 71 68 66 65
54 53 49 46 44 43 40 36 33 29 25 21 20 21 21 22 24 26 28 31 34 35 35 35 36 37 39 40 42 45 50 55 59 63 66 68 71 75 78 82 85 88 89 90 90 90 90 91 90 90 89 88 88 87 86 85 84 84 90 95 92 88 88 88 88 88 88 88 87 85 84 84 83 83 82 81 79 77 76 75 73 70 67 64 62
53 50 47 45 44 42 38 34 30 26 22 21 21 21 21 22 24 26 29 32 34 35 35 35 36 38 40 41 42 44 47 52 57 60 63 65 68 71 75 80 83 86 87 89 89 90 90 90 89 89 88 88 88 87 86 86 84 85 91 94 92 90 88 86 85 85 84 83 82 81 80 80 78 76 77 77 77 78 78 76 74 72 70 68 65
52 48 45 44 43 40 36 31 26 23 21 21 21 21 22 23 25 27 29 31 33 34 34 35 36 38 39 40 42 43 45 48 51 55 59 62 64 68 71 75 79 82 85 87 88 89 90 89 89 88 88 88 88 87 87 86 85 86 89 90 88 87 86 83 81 81 80 78 78 77 76 75 74 74 75 77 79 81 79 77 77 76 74 72 70
49 46 44 43 41 36 32 27 23 22 21 20 20 21 22 23 25 27 29 30 31 32 33 34 35 36 38 40 41 43 43 45 47 50 54 57 61 64 67 70 73 76 80 83 85 87 89 89 88 88 88 87 88 88 88 86 85 86 87 87 84 82 81 80 79 78 77 75 75 74 73 73 74 75 77 79 81 82 80 77 77 76 74 72 70
46 44 42 41 37 32 27 24 22 20 20 19 20 21 22 23 25 26 28 29 30 31 32 33 35 36 38 40 41 42 44 45 47 49 51 54 57 61 64 66 69 71 74 77 79 81 83 85 85 85 86 85 86 87 87 85 84 85 86 85 82 80 78 78 77 77 76 75 75 74 74 75 75 78 81 81 83 85 84 82 79 77 74 71 68
45 43 40 37 33 27 24 22 21 20 19 19 20 21 22 23 24 26 28 29 30 31 33 34 36 37 39 40 42 43 45 46 48 49 50 52 54 57 60 62 65 67 68 70 72 74 76 78 80 80 81 81 81 82 83 83 82 83 83 81 79 78 77 77 77 77 76 77 77 78 78 79 80 81 83 82 83 85 85 83 82 80 77 74 72
45 42 38 33 28 25 23 22 21 20 19 20 20 21 22 24 26 28 30 31 32 33 34 35 37 39 40 42 43 44 46 47 49 49 50 52 53 55 57 58 60 62 64 66 67 68 69 72 74 74 75 75 75 76 78 80 80 81 81 80 77 77 77 77 76 76 77 79 80 82 82 83 83 83 81 80 79 80 81 84 83 83 83 81 76
44 40 35 30 26 24 23 22 21 20 20 20 21 21 23 25 27 30 31 32 33 35 36 37 38 40 42 43 45 46 47 48 49 51 52 53 54 55 55 56 58 59 61 62 64 65 66 68 70 71 71 71 71 71 73 76 78 79 79 79 77 76 75 76 75 77 79 81 82 83 83 84 85 84 81 80 80 80 84 86 86 86 86 83 77
41 37 32 28 25 23 22 21 21 20 20 21 21 22 24 26 28 31 33 34 35 36 37 38 40 41 43 44 45 47 48 49 51 52 53 54 55 56 57 57 58 59 60 61 62 63 64 65 68 69 70 70 70 70 71 74 76 76 77 78 77 76 78 79 78 78 79 80 80 82 83 84 84 81 79 79 82 85 89 89 89 89 87 82 79
38 35 31 27 24 22 20 20 21 20 21 22 22 23 24 27 29 32 34 35 36 37 38 39 40 42 43 44 46 47 49 50 51 53 54 55 56 58 59 60 61 61 61 62 63 64 64 64 66 68 69 70 70 71 72 73 73 74 75 76 77 79 83 84 82 79 79 79 79 80 81 81 80 79 81 84 87 89 90 89 90 89 85 82 82
37 33 30 26 23 21 19 20 20 21 21 22 23 24 25 27 30 34 35 37 38 39 40 41 42 43 43 45 46 47 49 50 52 53 54 55 56 57 59 61 62 63 63 64 65 66 66 66 67 68 71 72 72 73 73 74 74 75 77 78 79 80 83 84 81 79 79 78 78 79 80 80 80 81 84 87 87 86 87 88 88 86 83 81 81
35 32 29 25 22 20 19 20 20 21 22 23 24 26 27 28 31 34 37 38 39 40 42 42 43 44 45 45 46 48 49 50 51 52 53 54 55 55 56 58 59 60 61 63 64 65 66 67 68 69 71 72 75 77 78 80 81 82 82 83 82 80 79 79 77 76 76 76 77 78 79 79 80 81 81 81 79 79 81 83 83 82 81 81 79
34 31 27 24 21 20 20 20 21 22 23 24 25 27 28 30 32 35 38 40 41 42 43 44 45 46 46 47 48 49 50 51 53 54 55 56 56 57 57 58 59 59 60 61 62 64 65 65 66 67 69 72 76 80 83 85 85 85 83 82 80 78 79 81 81 82 83 84 83 83 82 82 82 81 80 79 78 78 79 82 83 84 83 82 81
33 30 26 24 22 20 20 21 22 23 24 25 26 27 29 31 33 36 39 42 43 44 45 46 47 48 49 50 51 52 54 55 56 57 59 59 60 61 62 62 63 63 64 64 65 66 66 66 67 68 70 73 76 80 83 84 84 84 82 81 81 82 84 86 86 87 87 87 86 84 84 84 83 82 82 82 83 83 83 85 86 87 87 87 86
32 29 26 24 22 21 21 22 23 24 25 26 27 28 30 32 34 36 40 43 45 46 47 48 49 50 52 53 54 55 57 58 59 61 62 63 64 65 65 67 67 68 68 69 69 70 69 70 72 74 76 77 78 80 83 84 85 86 87 86 87 89 90 90 90 90 89 88 86 85 84 84 84 84 84 84 84 85 86 88 89 90 91 91 91
31 28 26 24 23 22 22 23 24 25 26 27 28 29 31 33 35 37 40 43 46 48 49 51 52 53 54 56 57 59 60 61 62 64 65 67 68 69 69 69 71 72 73 73 74 75 76 76 77 79 80 81 82 84 86 87 90 93 94 94 93 93 93 94 93 93 93 92 92 90 89 88 88 87 86 85 85 86 87 88 89 90 91 90 90
30 28 26 25 24 23 23 24 25 26 27 28 30 31 32 34 36 39 42 44 48 50 52 54 55 57 58 59 61 62 64 65 66 68 69 71 72 74 74 74 73 74 75 77 77 79 80 80 79 80 81 82 82 84 85 87 91 94 96 96 94 94 95 95 93 93 94 95 95 93 91 89 89 89 89 89 89 89 88 89 91 91 92 91 89